This demonstration page uses our WeatherBlox Daily Observations layout. Learn more.

Left ArrowRight Arrow

39.08367, -84.50855

Hourly Observations for April 1, 2018

Temp ( °F °C ) Dew Point ( °F °C ) Humidity (%) Winds ( mph kmh ) Pressure ( in mb ) Visibility ( mi km ) Precip ( " mm )
12:53 am 00:53 Cloudy with Light Rain 50 10 47 8.3 89 89 SSW 10 17 30.09 1019 10 16 N/A
1:03 am 01:03 Cloudy with Light Rain 50 10 48 8.9 93 93 SW 10 17 30.09 1019 10 16 N/A
1:53 am 01:53 Cloudy 50 10 48 8.9 93 93 SW 9 15 30.08 1019 10 16 N/A
2:16 am 02:16 Cloudy 50 10 48 8.9 93 93 WSW 7 11 30.09 1019 10 16 N/A
2:53 am 02:53 Cloudy 50 10 49 9.4 96 96 WSW 7 11 30.09 1019 8 13 N/A
3:53 am 03:53 Cloudy with Light Rain 50 10 49 9.4 96 96 W 6 9 30.08 1019 8 13 0.01 0.25
4:34 am 04:34 Cloudy 45 7.2 39 3.9 80 80 N 16 26 30.09 1019 10 16 N/A
4:43 am 04:43 Cloudy 44 6.7 39 3.9 83 83 N 12 19 30.12 1020 10 16 N/A
4:53 am 04:53 Cloudy 44 6.7 39 3.9 83 83 N 8 13 30.11 1020 10 16 N/A
5:53 am 05:53 Cloudy 42 5.6 35 1.7 76 76 N 10 17 30.15 1021 10 16 N/A
6:41 am 06:41 Cloudy 40 4.4 33 0.6 77 77 NNE 10 17 30.18 1022 10 16 N/A
6:53 am 06:53 Cloudy 40 4.4 31 -0.6 70 70 N 12 19 30.17 1022 10 16 N/A
7:53 am 07:53 Partly Cloudy 38 3.3 29 -1.7 70 70 N 9 15 30.20 1023 10 16 N/A
8:53 am 08:53 Mostly Sunny 39 3.9 29 -1.7 67 67 N 8 13 30.22 1023 10 16 N/A
9:53 am 09:53 Sunny 41 5 29 -1.7 62 62 NNE 12 19 30.23 1024 10 16 N/A
10:53 am 10:53 Sunny 44 6.7 30 -1.1 58 58 NNE 10 17 30.23 1024 10 16 N/A
11:53 am 11:53 Sunny 44 6.7 31 -0.6 60 60 NE 8 13 30.23 1024 10 16 N/A
12:53 pm 12:53 Sunny 48 8.9 33 0.6 56 56 N 5 7 30.21 1023 10 16 N/A
1:53 pm 13:53 Sunny 48 8.9 31 -0.6 52 52 NNE 8 13 30.20 1023 10 16 N/A
2:53 pm 14:53 Partly Cloudy 49 9.4 32 undefined 52 52 NNE 3 6 30.17 1022 10 16 N/A
3:53 pm 15:53 Mostly Sunny 49 9.4 30 -1.1 48 48 NNW 8 13 30.15 1021 10 16 N/A
4:53 pm 16:53 Mostly Sunny 49 9.4 28 -2.2 44 44 NNE 8 13 30.14 1021 10 16 N/A
5:53 pm 17:53 Mostly Sunny 48 8.9 30 -1.1 50 50 NNE 9 15 30.11 1020 10 16 N/A
6:53 pm 18:53 Sunny 47 8.3 31 -0.6 54 54 NE 13 20 30.09 1019 10 16 N/A
7:53 pm 19:53 Mostly Cloudy 46 7.8 28 -2.2 50 50 NNE 9 15 30.07 1018 10 16 N/A
8:53 pm 20:53 Cloudy 45 7.2 27 -2.8 49 49 NNE 10 17 30.07 1018 10 16 N/A
9:53 pm 21:53 Cloudy with Light Rain 40 4.4 33 0.6 77 77 NNE 14 22 30.12 1020 9 14 0.01 0.25
10:26 pm 22:26 Cloudy with Rain 37 2.8 34 1.1 89 89 NNE 12 19 30.12 1020 3 5 0.07 1.78
10:53 pm 22:53 Cloudy with Light Snow 33 0.6 33 0.6 100 100 E 7 11 30.12 1020 1 2 0.15 3.81
11:05 pm 23:05 Cloudy with Light Snow 33 0.6 33 0.6 100 100 ENE 3 6 30.15 1021 2 3 0.01 0.25
11:14 pm 23:14 Cloudy with Light Snow 33 0.6 33 0.6 100 100 NE 6 9 30.09 1019 4 6 0.02 0.51
11:27 pm 23:27 Cloudy with Light Snow 33 0.6 33 0.6 100 100 NNE 6 9 30.09 1019 2 3 0.04 1.02
11:34 pm 23:34 Cloudy with Light Snow 33 0.6 33 0.6 100 100 N 5 7 30.15 1021 2 2 0.04 1.02
11:45 pm 23:45 Cloudy with Light Snow 33 0.6 33 0.6 100 100 NW 3 6 30.15 1021 2 3 0.06 1.52
11:53 pm 23:53 Cloudy with Light Snow 33 0.6 33 0.6 100 100 W 3 6 30.14 1021 2 3 0.07 1.78

Powered by AerisWeather